TELEOS-2 (56310 NORAD) Tracking and Keplerian Element Data

This shows tracking and keplerian element data for the satellite.

Feedback or suggestion? Click here.




ElementValue
Catalog56310
NameTELEOS-2
Epoch Orbit1897
Epoch Day238.92616171
Epoch Year2023
RAAN109.3226
Inclination9.9871
Eccentricity6.99E-05
Argument of Perigee249.3688
Mean Anonmoly110.6451
Mean Motion14.96421234
Decay Rate8.159E-05
L11 56310U 23057C 23238.92616171 .00008159 00000+0 64067-3 0 9991
L22 56310 9.9871 109.3226 0000699 249.3688 110.6451 14.96421234 18977



Live tracking and technical data element details for TELEOS-2 (NORAD 56310). TELEOS-2 can be tracked NOW for your location showing map with azimuth and elevation plus other details from your city location.







IsCatalogInMostPopularTable: catalog: 56310, numindb: 35
Update: records affected: 1



GetName: 56310 TELEOS-2

Hit Count: updated at: Thu, 28 Sep 2023 04:06:01 GMT